User: anonymous   Login
Location: Unspecified
(0.0000°N, 0.0000°E)
Time: 13:05:45
(UTC+01:00)
Language:

Cosmos 1538 Rocket - Orbit

View from above orbital plane
View from above orbital plane
View from above satellite
View from above satellite

Ground track
Ground track

The orbit data is extracted from the following two-line orbital elements,

1 14760U 84019B   14303.94055311  .00000231  00000-0  88889-4 0  4579
2 14760 074.0445 083.0992 0027681 180.9193 318.4563 14.35558041605771
Epoch (UTC): 30 October 2014 22:34:23
Eccentricity: 0.0027681
inclination: 74.0445°
perigee height: 753 km
apogee height: 793 km
right ascension of ascending node: 83.0992°
argument of perigee: 180.9193°
revolutions per day: 14.35558041
mean anomaly at epoch: 318.4563°
orbit number at epoch: 60577

The dashed part of the orbit path shows where the satellite is in the earth's shadow,  

DLR